Location: West Cummington
(42.4920°N, 72.9680°W)
Time: 09:10:35
(UTC-04:00)

Cosmos 1703 Rocket - Visible Passes

Search period start: 01 November 2014 00:00
Search period end: 10 November 2014 23:00
Orbit: 608 x 634 km, 82.5° (Epoch: 01 November)

Date Brightness Start Highest point End Pass type
(mag) Time Alt. Az. Time Alt. Az. Time Alt. Az.
01 Nov 4.2 04:55:18 53° ENE 04:55:30 53° E 04:59:50 10° SSE visible
01 Nov 5.2 06:32:43 14° W 06:32:53 14° W 06:35:07 10° WSW visible
01 Nov 6.2 19:02:00 10° SW 19:05:30 22° WNW 19:09:02 10° NNW visible
02 Nov 5.1 04:16:06 26° S 04:16:06 26° S 04:18:00 10° S visible
02 Nov 6.7 18:21:54 10° W 18:23:51 13° WNW 18:25:50 10° NW visible
04 Nov 5.4 17:17:33 10° SW 17:21:39 36° WNW 17:25:48 10° N visible
05 Nov 6.3 17:36:36 10° WSW 17:39:54 20° WNW 17:43:15 10° NNW visible
06 Nov 6.8 17:56:54 10° W 17:58:17 11° WNW 17:59:40 10° NW visible
09 Nov 6.4 17:11:13 10° WSW 17:14:18 18° WNW 17:17:24 10° NNW visible
